www.pogodaiklimat.ru

Погода и климат >> Архив погоды >> Португалия >> Бежа аэропорт


ПОГОДА в Бежа аэропорту

  • Прогноз погоды в Бежа аэропорту
  • Монитор погоды в Бежа аэропорту

АРХИВ ПОГОДЫ в Бежа аэропорту

Время (UTC), дата Ветер
(напр.,м/с)
 
Видим.   Явления Облачность Т
(С)
Тd
(С)
f
(%)
Тe
(С)
Тes
(С)
Комфортность P
(гПа)
Po
(гПа)
Тmin
(С)
Tmax
(С)
R
(мм)
R24
(мм)
S
(см)
00 11.06 СЗ 6-9
{9}
20 км 3/0
[Ci fib]
+13.9 +8.6 70 +12 +12 1017.8 994.6
03 11.06 СЗ 4-6
{9}
20 км ясно +12.2 +9.6 84 +10 +10 1016.8 993.5
06 11.06 СЗ 4
{8}
20 км 1/1 210 м
[St Ci fib]
+11.8 +10.7 93 +10 +10 1016.1 992.7 +11.2
09 11.06 СЗ 7-10
{10}
20 км 3/3 450 м
[Sc Ci fib]
+17.9 +10.8 63 +17 +19 1015.1 992.3
12 11.06 С 8-12
{13}
20 км 1/1 900 м
[Cu hum Ci fib]
+24.1 +6.6 32 +24 +27 комфорт 1014.0 991.6
15 11.06 С 7-11
{13}
20 км 3/0
[Ci]
+26.6 +2.8 21 +25 +29 комфорт 1012.3 990.2
18 11.06 С 6
{11}
20 км 3/0
[Ci fib]
+26.5 -1.1 16 +24 +25 комфорт 1011.5 989.4 +26.9
21 11.06 С 6-10
{10}
20 км 4/0
[Ci]
+19.7 +6.6 42 +20 +20 1013.5 990.8
00 12.06 СЗ 3 20 км 3/0
[Ci fib]
+15.4 +6.8 56 +15 +15 1014.5 991.5
03 12.06 СЗ 2 20 км ясно +12.3 +6.6 68 +12 +12 1013.8 990.5
06 12.06 СЗ 3 20 км ясно +11.6 +7.0 73 +10 +10 1014.0 990.7 +10.2
09 12.06 С 4-7
{7}
20 км ясно +21.7 +3.1 29 +22 +29 комфорт 1013.5 991.0
12 12.06 С 3-7
{7}
20 км ясно +26.5 -0.3 17 +24 +42 комфорт 1012.2 990.1
15 12.06 СЗ 4 20 км ясно +27.2 -5.6 11 +24 +34 комфорт 1010.6 988.5
18 12.06 СЗ 8 20 км 1/1 1200 м
[Cu hum]
+25.3 -0.5 18 +24 +24 комфорт 1010.0 987.8 +28.3
21 12.06 СЗ 6-10
{11}
20 км ясно +17.5 +3.5 39 +17 +17 1012.1 989.3
00 13.06 СЗ 4 20 км ясно +12.6 +6.9 68 +11 +11 1013.5 990.3
03 13.06 СЗ 4 20 км ясно +10.2 +7.8 85 +8 +8 1013.0 989.6
06 13.06 З 3 20 км ясно +9.3 +8.6 95 +7 +7 1013.3 989.8 +8.8
09 13.06 С 6 20 км ясно +16.0 +7.3 56 +15 +19 1013.1 990.1
12 13.06 СЗ 4 20 км 1/0
[Ci sp]
+21.3 +2.7 29 +21 +35 комфорт 1011.9 989.4
15 13.06 СЗ 5 20 км 4/0
[Ci sp]
+24.2 +1.4 22 +23 +30 комфорт 1010.7 988.4
18 13.06 З 8
{11}
20 км 3/0
[Ci sp]
+22.6 +5.7 33 +23 +23 комфорт 1010.7 988.3 +24.9
21 13.06 СЗ 6 20 км 1/0
[Ci fib]
+17.0 +5.7 47 +16 +16 1013.4 990.5
00 14.06 СЗ 4 20 км ясно +13.1 +7.4 68 +11 +11 1015.0 991.8
03 14.06 З 3 20 км ясно +10.3 +7.7 84 +8 +8 1015.3 991.8
06 14.06 З 3 10 км дымка 1/1 1050 м
[Sc Ci fib]
+10.3 +9.2 93 +8 +8 1016.3 992.8 +9.6
09 14.06 СЗ 4-8
{8}
20 км 5/5 900 м
[Cu med, cong Ac trans]
+16.5 +7.8 56 +16 +19 1017.6 994.6
12 14.06 З 7-11
{11}
20 км 8/5 1350 м
[Cu med, cong Ac und]
+18.8 +6.7 45 +19 +20 1018.1 995.3
15 14.06 З 5-10
{11}
20 км 5/4 1350 м
[Cu med, cong Ac und]
+20.7 +3.6 32 +21 +25 комфорт 1017.5 994.8
18 14.06 З 6
{11}
20 км 3/3 1350 м
[Cu med, cong Ac und]
+19.7 +5.5 39 +20 +21 1018.4 995.6 +22.0
21 14.06 З 5 20 км 1/1 1350 м
[Cu med, cong Ac und]
+15.3 +6.9 57 +14 +14 1020.6 997.4
00 15.06 З 3 20 км ясно +12.6 +10.0 84 +11 +11 1021.7 998.3
03 15.06 СЗ 2 10 км туман на расстоянии ясно +10.9 +10.0 94 +9 +9 1021.2 997.7
06 15.06 С 1 9000 м туман на расстоянии 1/1 180 м
[St Ac und]
+11.6 +11.0 96 +11 +12 1021.6 998.1 +10.3
09 15.06 С 2 20 км 3/3 600 м
[Cu hum]
+17.9 +8.8 55 +18 +26 1021.9 998.9
12 15.06 С 3-7
{8}
20 км 3/3 1500 м
[Sc]
+22.4 +5.5 33 +23 +35 комфорт 1021.1 998.5
15 15.06 СЗ 4-9
{10}
20 км 1/1 1500 м
[Sc As trans Ci fib]
+24.8 +4.8 27 +24 +33 комфорт 1019.1 996.7
18 15.06 СЗ 7-10
{11}
20 км 4/0
[Ci fib]
+24.1 +7.0 33 +24 +25 комфорт 1018.2 995.8 +26.3
21 15.06 З 4 20 км 5/0
[Ci fib]
+18.5 +8.8 53 +19 +19 1019.3 996.4
00 16.06 СЗ 4
{7}
20 км 6/0
[Cs]
+15.3 +7.9 61 +14 +14 1019.5 996.3
03 16.06 СЗ 3 20 км 3/0
[Ci fib]
+11.6 +7.7 77 +10 +10 1018.9 995.5
06 16.06 З 3 20 км 8/0
[Ac trans Cs]
+11.7 +8.8 82 +10 +10 1018.6 995.2 +10.8
09 16.06 З 3 20 км 9/0
[Ac trans Cs]
+16.1 +9.1 63 +16 +20 1019.3 996.2
12 16.06 СЗ 3 20 км 6/0
[Ci fib]
+24.4 +6.9 33 +25 +40 комфорт 1018.2 995.8
15 16.06 ЮЗ 4 20 км 4/0
[Ci fib]
+28.1 +4.0 21 +27 +36 жарко 1016.4 994.3
18 16.06 СЗ 7 20 км 1/0
[Ci fib]
+26.5 +7.3 30 +26 +27 жарко 1016.3 994.1 +28.7
21 16.06 З 5 20 км ясно +18.2 +9.1 55 +18 +18 1018.5 995.6
00 17.06 З 2 20 км ясно +14.4 +10.3 76 +14 +14 1019.3 996.1
03 17.06 З 3 20 км ясно +12.1 +9.3 83 +10 +10 1018.5 995.1
06 17.06 З 2 10 км туман на расстоянии 1/0
[Ac lent]
+11.7 +9.3 85 +11 +11 1018.2 994.8 +10.9
09 17.06 Ю 4 20 км 1/0
[Ci fib]
+21.0 +8.4 44 +23 +29 комфорт 1017.4 994.7
12 17.06 Ю 5
{9}
20 км 1/0
[Ac trans]
+27.5 +2.1 19 +26 +36 жарко 1015.8 993.7
15 17.06 ЮЗ 5
{9}
20 км 3/0
[Ac trans Ci fib]
+30.4 -1.9 12 +27 +34 жарко 1013.4 991.5
18 17.06 З 5
{12}
20 км 5/0
[Ac trans]
+24.7 +8.8 36 +25 +26 комфорт 1014.1 991.8 +32.4
21 17.06 З 3
{8}
20 км 3/0
[Ac trans]
+17.2 +8.4 56 +17 +17 1015.5 992.6

 

Местоположение метеостанции Бежа аэропорт (Португалия): широта 38.07 долгота -7.92 высота над уровнем моря 203 м.

В архиве по умолчанию представлена погода в Бежа аэропорту за последнюю неделю. Архивные данные за месяц целиком и за предыдущие месяцы, начиная с января 2011 года, Вы можете получить, выбрав интересующий диапазон дат из раскрывающегося списка и нажав кнопку "Ввод!".


*Определитесь, кто Вы:
робот инопланетянин человек

Внимание! Время в таблицах - всемирное. Для получения местного времени необходимо прибавить поправку, которая равна 0 ч.

Смотрите также архив погоды в соседних городах и на ближайших метеорологических станциях:

Погода в Беже (Португалия) (7 км)
Погода в Эворе (Португалия) (51 км)
Погода в Синише (Португалия) (84 км)
Погода в Херес-де-лос-Кабалье (Испания) (105 км)
Погода в Айямонте - Исла Канель (Испания) (108 км)
Погода в Алахар - Кабезо Молин (Испания) (112 км)
Погода в Фару (Португалия) (117 км)
Погода в Монтижу (Португалия) (119 км)
Погода в Уэльве (Испания) (124 км)
Погода в Лиссабоне (Португалия) (129 км)

Пояснения к столбцам:

Ветер - указаны скорость ветра в м/с - средняя за 10 мин, порывы в срок и между сроками (в фигурных скобках) и направление, откуда дует ветер: С - северный, СВ - северо-восточный, В - восточный, ЮВ - юго-восточный, Ю - южный, ЮЗ - юго-западный, З - западный, СЗ - северо-западный.
Видимость - горизонтальная дальность видимости в метрах или километрах. При видимости от 1 до 10 км при отсутствии осадков обычно наблюдается дымка, при ухудшении видимости до 1 км и менее - туман. В сухую погоду видимость может ухудшаться дымом, пылью или мглою.
Явления - указаны атмосферные явления, наблюдавшиеся в срок или в последний час перед сроком; фигурными скобками обозначены явления, наблюдавшиеся между сроками (за 1-3 часа до срока); квадратными скобками обозначены град или гололедные отложения с указанием их диаметра в мм.
Облачность - указаны через наклонную черту общая и нижняя облачность в баллах и высота нижней границы облаков в метрах; квадратными скобками обозначены формы облаков: Ci - перистые, Cs - перисто-слоистые, Cc - перисто-кучевые, Ac - высококучевые, As - высокослоистые, Sc - слоисто-кучевые, Ns - слоисто-дождевые, Cu - кучевые, Cb - кучево-дождевые. Подробнее классификацию облаков см. в Атласе облаков (PDF).
T - Температура воздуха - температура, измеренная на высоте 2 м над землей.
Td - Температура точки росы - температура, при понижении до которой содержащийся в воздухе водяной пар достигнет насыщения.
f - Относительная влажность воздуха - влажноcть воздуха, измеренная на высоте 2 м над землей.
Te - Эффективная температура - температура, которую ощущает одетый по сезону человек в тени. Характеристика душности погоды. При расчете учитывается влияние влажности воздуха и скорости ветра на теплоощущения человека.
Tes - Эффективная температура на солнце - температура, которую ощущает человек, с поправкой на солнечный нагрев. Характеристика знойности погоды. Зависит от высоты солнца над горизонтом, облачности и скорости ветра. Ночью, в пасмурную погоду, а также при ветре 12 м/с и более поправка равна нулю.
P - Атмосферное давление - приведенное к уровню моря атмосферное давление.
Po - Атмосферное давление - измеренное на уровне метеостанции атмосферное давление.
Tmin - Минимальная температура - минимум температуры воздуха на высоте 2 м над землей.
Tmax - Максимальная температура - максимум температуры воздуха на высоте 2 м над землей.
R - Количество осадков - Количество выпавших осадков за период времени, мм. При наведении курсора мыши на число - период времени, за который выпало указанное количество осадков.
R24 - Количество осадков - Количество выпавших осадков за 24 часа, мм.
S - Снежный покров - Высота снежного покрова, см. При наведении курсора мыши на число - состояние снежного покрова и степень покрытия местности в баллах.